Location: Olmeneta
(45.2333°N, 10.0167°E)
Time: 16:18:43
(UTC+00:00)

Cosmos 1727 Rocket - Pass Details

Date: 03 March 2021
Orbit: 961 x 996 km, 82.9° (Epoch: 11 April)

Event Time Altitude Azimuth Distance (km) Brightness Sun altitude
Rises 18:42:34 0° 357° (N) 3,657 7.1 -17.1°
Reaches altitude 10° 18:45:17 10° 6° (N) 2,708 6.4 -17.5°
Maximum altitude 18:51:01 38° 73° (ENE) 1,431 4.4 -18.5°
Enters shadow 18:52:57 31° 111° (ESE) 1,630 4.6 -18.9°
